TimeEST,TemperatureF,Dew PointF,Humidity,Sea Level PressureIn,VisibilityMPH,Wind Direction,Wind SpeedMPH,Gust SpeedMPH,PrecipitationIn,Events,Conditions,WindDirDegrees,DateUTC
12:25 AM,-9999,-9999,N/A,29.72,10.0,West,16.1,23.0,N/A,,Overcast,270,1999-01-25 05:25:00
12:52 AM,-9999,-9999,N/A,29.72,10.0,West,15.0,23.0,N/A,,Overcast,280,1999-01-25 05:52:00
1:05 AM,-9999,-9999,N/A,29.73,10.0,West,13.8,23.0,N/A,,Overcast,270,1999-01-25 06:05:00
1:52 AM,-9999,-9999,N/A,29.75,10.0,West,12.7,16.1,N/A,,Overcast,280,1999-01-25 06:52:00
2:52 AM,-9999,-9999,N/A,29.77,10.0,West,12.7,20.7,N/A,,Overcast,270,1999-01-25 07:52:00
3:19 AM,-9999,-9999,N/A,29.77,8.0,West,12.7,21.9,0.00,,Unknown,280,1999-01-25 08:19:00
3:52 AM,-9999,-9999,N/A,29.80,10.0,NW,16.1,24.2,0.00,,Overcast,310,1999-01-25 08:52:00
4:04 AM,-9999,-9999,N/A,29.81,9.0,WNW,13.8,24.2,0.00,,Unknown,300,1999-01-25 09:04:00
4:37 AM,-9999,-9999,N/A,29.83,10.0,WNW,18.4,31.1,0.00,,Overcast,300,1999-01-25 09:37:00
4:52 AM,-9999,-9999,N/A,29.83,10.0,WNW,16.1,28.8,0.00,,Overcast,290,1999-01-25 09:52:00
5:00 AM,-9999,-9999,N/A,29.83,10.0,West,13.8,25.3,N/A,,Overcast,280,1999-01-25 10:00:00
5:23 AM,-9999,-9999,N/A,29.84,10.0,WNW,17.3,25.3,N/A,,Scattered Clouds,300,1999-01-25 10:23:00
5:52 AM,-9999,-9999,N/A,29.86,10.0,WNW,16.1,24.2,N/A,,Clear,300,1999-01-25 10:52:00
6:52 AM,-9999,-9999,N/A,29.89,10.0,West,10.4,17.3,N/A,,Clear,280,1999-01-25 11:52:00
7:52 AM,-9999,-9999,N/A,29.92,10.0,WNW,12.7,25.3,N/A,,Clear,290,1999-01-25 12:52:00
8:52 AM,-9999,-9999,N/A,29.93,10.0,WNW,10.4,19.6,N/A,,Clear,290,1999-01-25 13:52:00
9:52 AM,-9999,-9999,N/A,29.95,10.0,WNW,11.5,24.2,N/A,,Clear,290,1999-01-25 14:52:00
10:52 AM,-9999,-9999,N/A,29.96,10.0,West,13.8,24.2,N/A,,Clear,260,1999-01-25 15:52:00
11:52 AM,-9999,-9999,N/A,29.96,10.0,West,12.7,18.4,N/A,,Clear,270,1999-01-25 16:52:00
12:52 PM,-9999,-9999,N/A,29.95,10.0,West,8.1,18.4,N/A,,Clear,270,1999-01-25 17:52:00
1:52 PM,28.0,1.0,31,29.96,10.0,WNW,12.7,18.4,N/A,,Clear,300,1999-01-25 18:52:00
2:52 PM,28.0,5.0,38,29.98,10.0,WNW,8.1,-,N/A,,Clear,290,1999-01-25 19:52:00
3:52 PM,28.0,3.9,36,30.01,10.0,NW,8.1,-,N/A,,Clear,310,1999-01-25 20:52:00
4:52 PM,26.1,3.9,39,30.05,10.0,NW,6.9,-,N/A,,Clear,310,1999-01-25 21:52:00
5:52 PM,21.9,1.9,42,30.08,10.0,North,4.6,-,N/A,,Clear,10,1999-01-25 22:52:00
6:52 PM,21.9,1.0,40,30.10,10.0,WNW,9.2,-,N/A,,Clear,300,1999-01-25 23:52:00
7:52 PM,19.9,1.9,46,30.13,10.0,Calm,Calm,-,N/A,,Clear,0,1999-01-26 00:52:00
8:52 PM,18.0,1.9,50,30.15,10.0,WNW,5.8,-,N/A,,Clear,290,1999-01-26 01:52:00
9:52 PM,12.9,1.0,59,30.17,10.0,Calm,Calm,-,N/A,,Clear,0,1999-01-26 02:52:00
10:52 PM,16.0,3.9,59,30.19,10.0,Calm,Calm,-,N/A,,Clear,0,1999-01-26 03:52:00
11:52 PM,14.0,3.9,64,30.22,10.0,Calm,Calm,-,N/A,,Clear,0,1999-01-26 04:52:00